小惑星2000 OO67

(87269) 2000 OO67 (2005)

English version
Home page
Updated on August 22, 2010

---------------------------------------------------------------------

・ プロフィール

発見日 2000年7月29日
発見光度 22.1等
発見者 M. W. Buie, S. D. Kern, R. L. Millis, L. H. Wasserman, J. L. Elliot, J. A. Pate, J. J. Qu (Cerro Tololo)

・ 軌道要素

The following orbital elements are taken from MPO157286

Epoch 2010 July 23.0 TT = JDT 2455400.5                 MPC
M   0.10866              (2000.0)            P               Q
n   0.00005679     Peri.  212.52430     +0.97592581     +0.05943332
a 670.3541890      Node   142.27066     -0.03355088     +0.99161296
e   0.9690068      Incl.   20.05537     -0.21550673     +0.11476683
P    17356         H    9.2           G   0.15           U   0
From 34 observations at 5 oppositions, 2000-2006, mean residual 0".35.

・ 光度変化

        H = 9.2  G = 0.15

---------------------------------------------------------------------

軌道要素はMPCのEphemerides and Orbital Elementsに掲載されたものです。
光度グラフはComet for Windowsで作成したものです。

---------------------------------------------------------------------

Copyright(C) Seiichi Yoshida (comet@aerith.net). All rights reserved.